This is the latest recevied weather packets stored in our database for station/object W1SCW. If no packets are shown the sender has not sent any weather packets the latest 1 day(s).
| Time | Temp. | Humidity | Pressure | Rain* | Wind** | Luminosity | Snow |
|---|---|---|---|---|---|---|---|
| 1778002734 | 27.22° C | 79% | 1007.9 hPa | 0 mm | 2.24 m/s, 240° | 195 W/m² | - |
| 1778002431 | 27.22° C | 79% | 1007.8 hPa | 0 mm | 0.89 m/s, 193° | 173 W/m² | - |
| 1778002128 | 27.22° C | 79% | 1007.9 hPa | 0 mm | 0.89 m/s, 289° | 245 W/m² | - |
| 1778001826 | 27.22° C | 80% | 1008.1 hPa | 0 mm | 1.79 m/s, 236° | 293 W/m² | - |
| 1778001525 | 26.67° C | 81% | 1007.9 hPa | 0 mm | 1.79 m/s, 202° | 243 W/m² | - |
| 1778001222 | 26.67° C | 82% | 1008 hPa | 0 mm | 1.34 m/s, 162° | 185 W/m² | - |
| 1778000919 | 26.67° C | 81% | 1008.2 hPa | 0 mm | 1.79 m/s, 184° | 99 W/m² | - |
| 1778000616 | 26.67° C | 81% | 1008.1 hPa | 0 mm | 0.45 m/s, 235° | 169 W/m² | - |
| 1778000311 | 26.67° C | 82% | 1007.8 hPa | 0 mm | 1.79 m/s, 185° | 228 W/m² | - |
| 1778000007 | 26.67° C | 83% | 1008.1 hPa | 0 mm | 1.34 m/s, 261° | 320 W/m² | - |
| 1777999703 | 26.11° C | 85% | 1008.1 hPa | 0 mm | 1.79 m/s, 158° | 301 W/m² | - |
| 1777999400 | 25.56° C | 86% | 1008.2 hPa | 0 mm | 1.79 m/s, 256° | 292 W/m² | - |
| 1777999098 | 25.56° C | 86% | 1008 hPa | 0 mm | 0.89 m/s, 164° | 98 W/m² | - |
| 1777998796 | 26.11° C | 84% | 1008 hPa | 0 mm | 3.13 m/s, 198° | 61 W/m² | - |
| 1777998494 | 26.11° C | 83% | 1008 hPa | 0 mm | 1.79 m/s, 221° | 134 W/m² | - |
| 1777998190 | 26.11° C | 83% | 1008 hPa | 0 mm | 0.89 m/s, 189° | 168 W/m² | - |
| 1777997888 | 26.11° C | 82% | 1008 hPa | 0 mm | 2.24 m/s, 198° | 220 W/m² | - |
| 1777997584 | 26.11° C | 83% | 1008.1 hPa | 0 mm | 1.34 m/s, 214° | 235 W/m² | - |
| 1777997282 | 26.11° C | 83% | 1008 hPa | 0 mm | 0.89 m/s, 192° | 252 W/m² | - |
| 1777996980 | 26.11° C | 83% | 1008 hPa | 0 mm | 2.24 m/s, 173° | 227 W/m² | - |
| 1777996676 | 26.11° C | 84% | 1007.8 hPa | 0 mm | 2.68 m/s, 159° | 309 W/m² | - |
| 1777996371 | 26.11° C | 84% | 1007.9 hPa | 0 mm | 1.79 m/s, 163° | 322 W/m² | - |
| 1777996068 | 25.56° C | 84% | 1008 hPa | 0 mm | 1.79 m/s, 139° | 159 W/m² | - |
| 1777995764 | 25.56° C | 84% | 1007.8 hPa | 0 mm | 1.34 m/s, 241° | 199 W/m² | - |
| 1777995461 | 25.56° C | 85% | 1008 hPa | 0 mm | 1.79 m/s, 166° | 225 W/m² | - |
* Rain latest hour (hover to see other rain measurements)
** Current wind speed in m/s (hover to see current wind gust speed)